Погода в Фонвьее

Монако     43°43′41″N   7°25′00″E
темп.,
°C
ветер,
м/с
пор.,
м/с
влажн.,
%
обл.,
%
осадки,
мм/ч
давл.,
гПа
погр.,
м
1 августа, вс
вс123:00+23с1181100 1.3 1007183
02:00+23з22804 3.1 1007105
05:00+23сз337172 2.4 1005163
08:00+23юз026415 2.5 1005262
11:00+22ю31736 0.2 1005386
14:00+26ююз79595 0.2 1005525
17:00+29юз1113450 0.0 1002545
20:00+27зюз10104877 0.0 1003279
2 августа, пн
пн223:00+25с23540 0.0 1006124
02:00+24зсз22513 0.0 1008283
05:00+23сз2254100 0.0 1009203
08:00+23сз22490 0.0 1011229
11:00+23ю22600 0.0 1013476
14:00+23юв32695 0.1 1013426
17:00+24вюв446515 0.0 1013380
20:00+24всв55610 0.0 1012417
3 августа, вт
вт323:00+24с2161100 0.0 1014163
02:00+24сз2257100 0.0 1014166
05:00+23сз01535 0.0 1014218
08:00+23ссз22510 0.0 1014193
11:00+23ююв54617 0.0 1015444
14:00+24ю3367100 0.0 1014488
17:00+24ююз236279 0.0 1013491
20:00+25зсз126057 0.1 1012335
4 августа, ср
ср423:00+25ссв3260100 0.0 1012150
02:00+24св4461100 0.0 1012244
05:00+24ссз215592 0.0 1011170
08:00+23з1155100 0.1 1012198
11:00+24юз3365100 0.0 1012313
14:00+24юз7664100 0.1 1012641
17:00+26юз876398 0.0 1010585
20:00+26юз5770100 0.0 1009330
5 августа, чт
чт523:00+24с55640 0.0 1010206
02:00+24сз22510 0.0 1010107
05:00+23сз33525 0.0 1010157
08:00+23з2356100 0.0 1011325
11:00+23ююв327399 0.1 1011498
14:00+24в547489 0.2 1009369
17:00+24в55707 0.0 1008330
20:00+25в446589 0.0 1008397